OAL792 LGAV-LGTS

Flight info

Callsign OAL792
Flight time 0h 47m
Altitude 28000
Route KRO G33 NEVRA T514 OSMOS
Aircraft B739/M-SDE2E3FGHIRWXY/LB1

Departure

Time 2026-05-04 01:13
Airport Athens Eleftherios Venizelos International Airport (LGAV)

Arrival

Time 2026-05-04 02:01
Airport Thessaloniki Macedonia International Airport (LGTS)
Time Latitude Longitude Altitude Speed Heading
2026-05-04 00:55 37.92742 23.94139 301 ft 0 kts 38°
2026-05-04 01:09 37.92743 23.94142 301 ft 1 kts 58°
2026-05-04 01:09 37.92737 23.94150 304 ft 2 kts 143°
2026-05-04 01:10 37.92710 23.94141 303 ft 6 kts 219°
2026-05-04 01:10 37.92701 23.94131 301 ft 0 kts 219°
2026-05-04 01:10 37.92674 23.94118 301 ft 8 kts 178°
2026-05-04 01:10 37.92621 23.94185 302 ft 14 kts 126°
2026-05-04 01:11 37.92592 23.94236 302 ft 0 kts 126°
2026-05-04 01:11 37.92551 23.94305 304 ft 20 kts 127°
2026-05-04 01:12 37.92504 23.94465 307 ft 20 kts 55°
2026-05-04 01:12 37.92590 23.94549 305 ft 15 kts 35°
2026-05-04 01:12 37.92616 23.94572 305 ft 1 kts 35°
2026-05-04 01:12 37.92664 23.94614 304 ft 32 kts 35°
2026-05-04 01:13 37.93042 23.94976 292 ft 104 kts 36°
2026-05-04 01:13 37.93784 23.95677 283 ft 159 kts 33°
2026-05-04 01:13 37.94689 23.96596 728 ft 168 kts 35°
2026-05-04 01:13 37.95629 23.97514 1446 ft 168 kts 35°
2026-05-04 01:14 37.96546 23.98385 2228 ft 165 kts 34°
2026-05-04 01:14 37.97530 23.99313 2540 ft 189 kts 34°
2026-05-04 01:14 37.98623 24.00350 2968 ft 197 kts 34°
2026-05-04 01:14 37.99718 24.01395 3608 ft 196 kts 34°
2026-05-04 01:15 38.00806 24.02420 4252 ft 194 kts 31°
2026-05-04 01:15 38.01940 24.03366 4824 ft 195 kts 29°
2026-05-04 01:15 38.03086 24.04296 5420 ft 196 kts 29°
2026-05-04 01:15 38.04234 24.05227 5986 ft 197 kts 28°
2026-05-04 01:16 38.05391 24.06168 6552 ft 198 kts 28°
2026-05-04 01:16 38.06553 24.07115 7107 ft 199 kts 28°
2026-05-04 01:16 38.07729 24.08076 7554 ft 206 kts 28°
2026-05-04 01:16 38.08985 24.09100 7728 ft 224 kts 28°
2026-05-04 01:17 38.10351 24.10215 7924 ft 240 kts 29°
2026-05-04 01:17 38.11792 24.11397 8206 ft 253 kts 29°
2026-05-04 01:17 38.13296 24.12632 8648 ft 262 kts 28°
2026-05-04 01:17 38.14920 24.13614 9360 ft 261 kts 17°
2026-05-04 01:18 38.16645 24.14353 10144 ft 263 kts 15°
2026-05-04 01:18 38.18423 24.15064 10607 ft 276 kts 14°
2026-05-04 01:18 38.20309 24.15817 11008 ft 289 kts 15°
2026-05-04 01:18 38.22252 24.16607 11615 ft 296 kts 15°
2026-05-04 01:19 38.24222 24.17421 12337 ft 300 kts 15°
2026-05-04 01:19 38.26212 24.18254 13093 ft 303 kts 15°
2026-05-04 01:19 38.28232 24.19107 13867 ft 307 kts 15°
2026-05-04 01:19 38.30272 24.19974 14555 ft 311 kts 15°
2026-05-04 01:20 38.32332 24.20854 15270 ft 313 kts 15°
2026-05-04 01:20 38.34411 24.21744 15969 ft 317 kts 16°
2026-05-04 01:20 38.36515 24.22646 16673 ft 321 kts 16°
2026-05-04 01:20 38.38640 24.23559 17383 ft 324 kts 16°
2026-05-04 01:21 38.40784 24.24482 18083 ft 327 kts 16°
2026-05-04 01:21 38.42955 24.25416 18735 ft 331 kts 16°
2026-05-04 01:21 38.45147 24.26361 19350 ft 334 kts 16°
2026-05-04 01:21 38.47356 24.27314 19987 ft 336 kts 17°
2026-05-04 01:22 38.49583 24.28275 20609 ft 340 kts 17°
2026-05-04 01:22 38.51074 24.28919 21025 ft 342 kts 17°
2026-05-04 01:22 38.54079 24.30217 21780 ft 348 kts 17°
2026-05-04 01:22 38.56391 24.31217 22316 ft 353 kts 17°
2026-05-04 01:23 38.58723 24.32226 22994 ft 354 kts 17°
2026-05-04 01:23 38.61064 24.33241 23619 ft 357 kts 17°
2026-05-04 01:23 38.62662 24.33933 23925 ft 360 kts 18°
2026-05-04 01:23 38.65023 24.34957 24390 ft 364 kts 17°
2026-05-04 01:24 38.67424 24.35999 24934 ft 365 kts 17°
2026-05-04 01:24 38.69845 24.37050 25407 ft 368 kts 17°
2026-05-04 01:24 38.72284 24.38109 25865 ft 372 kts 17°
2026-05-04 01:24 38.74756 24.39183 26181 ft 380 kts 18°
2026-05-04 01:25 38.77283 24.40283 26521 ft 385 kts 18°
2026-05-04 01:25 38.79817 24.41387 27069 ft 386 kts 18°
2026-05-04 01:25 38.82378 24.42503 27421 ft 392 kts 18°
2026-05-04 01:25 38.84980 24.43638 27750 ft 398 kts 18°
2026-05-04 01:26 38.87584 24.44775 28126 ft 392 kts 17°
2026-05-04 01:26 38.92799 24.47012 28128 ft 399 kts 13°
2026-05-04 01:26 38.95556 24.47278 28144 ft 399 kts 353°
2026-05-04 01:27 38.98239 24.46368 28138 ft 400 kts 336°
2026-05-04 01:27 39.00635 24.44556 28133 ft 403 kts 320°
2026-05-04 01:27 39.02584 24.41959 28156 ft 405 kts 311°
2026-05-04 01:28 39.06154 24.36377 28146 ft 405 kts 311°
2026-05-04 01:28 39.09656 24.30837 28135 ft 396 kts 311°
2026-05-04 01:29 39.13184 24.25340 28152 ft 400 kts 311°
2026-05-04 01:29 39.16749 24.19814 28145 ft 402 kts 311°
2026-05-04 01:30 39.20335 24.14250 28137 ft 404 kts 311°
2026-05-04 01:30 39.23924 24.08671 28146 ft 403 kts 311°
2026-05-04 01:31 39.27470 24.03146 28132 ft 391 kts 313°
2026-05-04 01:31 39.31143 23.98193 28151 ft 382 kts 325°
2026-05-04 01:32 39.35574 23.94387 28148 ft 383 kts 329°
2026-05-04 01:32 39.40061 23.90633 28155 ft 385 kts 329°
2026-05-04 01:33 39.44572 23.86823 28166 ft 393 kts 329°
2026-05-04 01:33 39.49239 23.82858 28166 ft 409 kts 328°
2026-05-04 01:34 39.54033 23.78766 28140 ft 412 kts 328°
2026-05-04 01:34 39.56386 23.76752 28126 ft 397 kts 328°
2026-05-04 01:34 39.58610 23.74844 28102 ft 381 kts 328°
2026-05-04 01:34 39.60773 23.72988 28146 ft 366 kts 329°
2026-05-04 01:35 39.62894 23.71171 28146 ft 367 kts 329°
2026-05-04 01:35 39.67208 23.67479 28035 ft 378 kts 329°
2026-05-04 01:35 39.69428 23.65577 27268 ft 383 kts 329°
2026-05-04 01:36 39.71644 23.63673 26638 ft 381 kts 329°
2026-05-04 01:36 39.73851 23.61774 26006 ft 379 kts 329°
2026-05-04 01:36 39.76039 23.59890 25516 ft 374 kts 329°
2026-05-04 01:36 39.78194 23.58032 25023 ft 370 kts 329°
2026-05-04 01:37 39.80328 23.56192 24545 ft 366 kts 329°
2026-05-04 01:37 39.82434 23.54374 24075 ft 362 kts 329°
2026-05-04 01:37 39.84525 23.52570 23583 ft 359 kts 329°
2026-05-04 01:37 39.86598 23.50779 23022 ft 356 kts 329°
2026-05-04 01:38 39.88651 23.49005 22465 ft 353 kts 329°
2026-05-04 01:38 39.90692 23.47239 21938 ft 350 kts 329°
2026-05-04 01:38 39.92715 23.45489 21401 ft 348 kts 329°
2026-05-04 01:38 39.94701 23.43769 20887 ft 346 kts 329°
2026-05-04 01:39 39.96695 23.42040 20362 ft 343 kts 329°
2026-05-04 01:39 39.98678 23.40321 19860 ft 341 kts 329°
2026-05-04 01:39 40.00648 23.38612 19363 ft 339 kts 329°
2026-05-04 01:39 40.02604 23.36914 18879 ft 337 kts 329°
2026-05-04 01:40 40.04551 23.35223 18423 ft 334 kts 329°
2026-05-04 01:40 40.06478 23.33548 17936 ft 331 kts 329°
2026-05-04 01:40 40.08388 23.31886 17451 ft 328 kts 329°
2026-05-04 01:40 40.10280 23.30240 16973 ft 326 kts 329°
2026-05-04 01:41 40.12157 23.28606 16502 ft 323 kts 329°
2026-05-04 01:41 40.14021 23.26982 16034 ft 321 kts 329°
2026-05-04 01:41 40.15880 23.25393 15568 ft 318 kts 330°
2026-05-04 01:41 40.17762 23.23897 15127 ft 315 kts 331°
2026-05-04 01:42 40.19637 23.22424 14688 ft 313 kts 331°
2026-05-04 01:42 40.21454 23.20862 14221 ft 314 kts 320°
2026-05-04 01:42 40.22630 23.18440 13765 ft 323 kts 290°
2026-05-04 01:42 40.22704 23.15487 13284 ft 334 kts 260°
2026-05-04 01:43 40.21660 23.12800 12832 ft 341 kts 234°
2026-05-04 01:43 40.20241 23.10341 12360 ft 336 kts 243°
2026-05-04 01:43 40.19322 23.07577 11884 ft 328 kts 258°
2026-05-04 01:43 40.18902 23.04670 11440 ft 323 kts 268°
2026-05-04 01:44 40.18739 23.01771 11184 ft 313 kts 271°
2026-05-04 01:44 40.18678 22.98990 11145 ft 298 kts 274°
2026-05-04 01:44 40.18692 22.96305 11124 ft 294 kts 276°
2026-05-04 01:44 40.18793 22.93655 10992 ft 288 kts 279°
2026-05-04 01:45 40.19002 22.91085 10871 ft 281 kts 282°
2026-05-04 01:45 40.19320 22.88586 10633 ft 279 kts 285°
2026-05-04 01:45 40.20282 22.83698 9888 ft 279 kts 291°
2026-05-04 01:46 40.20923 22.81311 9482 ft 277 kts 295°
2026-05-04 01:46 40.21665 22.78993 9088 ft 275 kts 297°
2026-05-04 01:46 40.22500 22.76750 8694 ft 274 kts 301°
2026-05-04 01:46 40.23427 22.74584 8305 ft 272 kts 304°
2026-05-04 01:47 40.24445 22.72491 7920 ft 271 kts 307°
2026-05-04 01:47 40.25544 22.70493 7544 ft 270 kts 309°
2026-05-04 01:47 40.26720 22.68591 7184 ft 268 kts 313°
2026-05-04 01:47 40.27958 22.66801 6933 ft 262 kts 315°
2026-05-04 01:48 40.29240 22.65141 6681 ft 257 kts 318°
2026-05-04 01:48 40.30563 22.63603 6422 ft 252 kts 321°
2026-05-04 01:48 40.31927 22.62178 6149 ft 248 kts 324°
2026-05-04 01:48 40.33316 22.60875 5883 ft 244 kts 327°
2026-05-04 01:49 40.34735 22.59683 5622 ft 240 kts 329°
2026-05-04 01:49 40.36174 22.58602 5361 ft 237 kts 332°
2026-05-04 01:49 40.37616 22.57640 5115 ft 233 kts 335°
2026-05-04 01:49 40.39064 22.56787 5051 ft 220 kts 338°
2026-05-04 01:50 40.40436 22.56078 5002 ft 203 kts 340°
2026-05-04 01:50 40.41708 22.55503 4991 ft 184 kts 342°
2026-05-04 01:50 40.42869 22.55043 4975 ft 168 kts 344°
2026-05-04 01:50 40.43992 22.54655 4996 ft 166 kts 346°
2026-05-04 01:51 40.45124 22.54317 5000 ft 166 kts 348°
2026-05-04 01:51 40.46265 22.54029 5001 ft 167 kts 349°
2026-05-04 01:51 40.47414 22.53793 4997 ft 167 kts 352°
2026-05-04 01:51 40.48566 22.53611 5007 ft 166 kts 353°
2026-05-04 01:52 40.49721 22.53482 5005 ft 167 kts 355°
2026-05-04 01:52 40.50881 22.53402 5012 ft 167 kts 356°
2026-05-04 01:52 40.52032 22.53356 5005 ft 167 kts 358°
2026-05-04 01:52 40.53195 22.53352 5008 ft 167 kts 359°
2026-05-04 01:53 40.54355 22.53405 5007 ft 167 kts
2026-05-04 01:53 40.55515 22.53527 5006 ft 167 kts
2026-05-04 01:53 40.56645 22.53871 4990 ft 169 kts 27°
2026-05-04 01:53 40.57606 22.54758 5003 ft 171 kts 38°
2026-05-04 01:54 40.58391 22.55994 4781 ft 184 kts 56°
2026-05-04 01:54 40.58895 22.57598 4290 ft 195 kts 72°
2026-05-04 01:54 40.58926 22.59411 3811 ft 204 kts 95°
2026-05-04 01:54 40.58690 22.61265 3346 ft 207 kts 97°
2026-05-04 01:55 40.58401 22.63145 2858 ft 211 kts 99°
2026-05-04 01:55 40.58066 22.65028 2486 ft 208 kts 101°
2026-05-04 01:55 40.57724 22.66840 2237 ft 200 kts 101°
2026-05-04 01:55 40.57394 22.68566 2045 ft 188 kts 101°
2026-05-04 01:56 40.57086 22.70166 1995 ft 175 kts 100°
2026-05-04 01:56 40.56797 22.71685 2001 ft 172 kts 100°
2026-05-04 01:56 40.56506 22.73210 2004 ft 172 kts 100°
2026-05-04 01:56 40.56215 22.74742 2020 ft 173 kts 100°
2026-05-04 01:57 40.55921 22.76285 2019 ft 175 kts 100°
2026-05-04 01:57 40.55624 22.77840 2017 ft 176 kts 101°
2026-05-04 01:57 40.55328 22.79397 2026 ft 176 kts 103°
2026-05-04 01:57 40.55033 22.80946 2001 ft 172 kts 103°
2026-05-04 01:58 40.54749 22.82436 1945 ft 164 kts 103°
2026-05-04 01:58 40.54475 22.83877 1749 ft 161 kts 103°
2026-05-04 01:58 40.54207 22.85290 1509 ft 159 kts 103°
2026-05-04 01:58 40.53945 22.86670 1322 ft 154 kts 103°
2026-05-04 01:59 40.53685 22.88043 1110 ft 155 kts 102°
2026-05-04 01:59 40.53423 22.89426 887 ft 156 kts 103°
2026-05-04 01:59 40.53167 22.90778 673 ft 153 kts 103°
2026-05-04 01:59 40.52913 22.92118 493 ft 149 kts 104°
2026-05-04 02:00 40.52664 22.93448 266 ft 152 kts 104°
2026-05-04 02:00 40.52412 22.94769 53 ft 146 kts 104°
2026-05-04 02:00 40.52186 22.95980 11 ft 115 kts 104°
2026-05-04 02:00 40.52043 22.96724 13 ft 53 kts 104°
2026-05-04 02:01 40.51997 22.96975 11 ft 18 kts 103°
2026-05-04 02:01 40.51967 22.97135 11 ft 18 kts 104°
2026-05-04 02:01 40.51952 22.97251 11 ft 9 kts 68°
2026-05-04 02:01 40.51968 22.97265 11 ft 2 kts 15°
2026-05-04 02:02 40.51992 22.97264 11 ft 5 kts 353°
2026-05-04 02:02 40.52032 22.97256 12 ft 7 kts 348°
2026-05-04 02:02 40.52094 22.97235 15 ft 11 kts 346°
2026-05-04 02:02 40.52180 22.97207 15 ft 15 kts 346°
2026-05-04 02:03 40.52289 22.97172 14 ft 14 kts 346°
2026-05-04 02:03 40.52371 22.97188 16 ft 14 kts 57°
2026-05-04 02:03 40.52326 22.97299 14 ft 16 kts 137°
2026-05-04 02:03 40.52334 22.97432 14 ft 18 kts 57°
2026-05-04 02:04 40.52354 22.97468 14 ft 0 kts 43°